[[{"header":{"parameterUnit":"m.s-1","parameterCategory":1,"la1":30.2991,"la2":30.254,"lo1":-89.0895,"lo2":-89.0444,"dy":0.0017,"dx":0.0017,"nx":28,"ny":28,"refTime":"2024-07-05T21:00:00:Z","depth":0,"parameterNumber":2,"parameterNumberName":"U-component_of_WINDS"},"data":[0,0,0,0,0,0,0,0,0,0,0,0,0,0,0,0,0,0,0,0,0,0,0,0,0,0,0,0,0,0,0,0,0,0,0,0,0,0,0,0,0,0,0,0,0,0,0,0,0,0,0,0,0,0,0,0,0,0,1.8772,1.8773,0,1.8832,1.8833,1.8834,1.8785,1.8783,1.8781,1.8779,1.8845,1.8849,1.8852,0,0,0,0,0,0,0,0,0,0,0,0,0,1.8619,1.8622,1.8772,1.8773,1.8774,1.8832,1.8833,1.8834,1.8786,1.8783,1.8781,1.8778,1.8844,1.8848,1.8853,0,0,0,0,0,0,0,0,0,0,0,0,0,1.8683,1.8623,1.8772,1.8756,1.8756,1.8832,1.8833,1.8834,1.8786,1.8783,1.878,1.8777,1.8842,1.8848,1.8853,1.8949,0,0,1.887,1.8872,0,0,0,0,0,0,0,0,1.868,1.8689,1.8758,1.8758,1.8757,1.8798,1.8803,1.8873,1.8787,1.8775,1.8779,1.8775,1.8832,1.8838,1.8857,1.8952,1.8955,1.8871,1.8874,1.8876,1.8878,0,0,0,0,0,0,0,1.8675,1.8686,1.8796,1.8759,1.8758,1.8748,1.8753,1.8816,1.882,1.8776,1.8772,1.878,1.8831,1.8851,1.8858,1.8956,1.887,1.8875,1.8879,1.8881,1.9135,1.9138,0,0,0,0,0,0,1.8672,1.8683,1.8794,1.8798,1.871,1.8753,1.8759,1.8788,1.8819,1.8821,1.8782,1.8777,1.8843,1.8851,1.886,1.8975,1.8876,1.8881,1.8885,1.9132,1.9136,1.9139,0,0,0,0,0,0,1.8669,1.8682,1.8792,1.8739,1.8752,1.8759,1.8792,1.8791,1.8811,1.8824,1.8825,1.8802,1.8841,1.8852,1.8927,1.8977,1.8884,1.8889,1.9127,1.9133,1.9138,1.9206,0,0,0,0,0,0,1.8665,1.8681,1.8717,1.874,1.8755,1.8857,1.8795,1.8794,1.882,1.8814,1.8843,1.8845,1.884,1.8919,1.8933,1.8983,1.8893,1.9123,1.913,1.9136,1.92,1.9213,1.9225,0,0,0,0,0,1.8659,1.8735,1.8719,1.8733,1.88,1.886,1.8869,1.886,1.8824,1.8861,1.8869,1.8844,1.8969,1.8927,1.8942,1.8995,1.912,1.9128,1.9135,1.9194,1.921,1.9224,0,0,0,0,0,0,1.8719,1.8738,1.8721,1.8806,1.8831,1.8852,1.8898,1.8878,1.8915,1.8908,1.8897,1.8904,1.8983,1.8996,1.895,1.909,1.9039,1.905,1.9078,1.9094,1.9106,1.9102,1.8898,0,0,0,0,0,1.8742,1.8787,1.8802,1.8876,1.8889,1.8892,1.8917,1.8908,1.8935,1.8946,1.896,1.8989,1.9034,1.9065,1.9107,1.9201,1.9207,1.9244,1.9257,1.9267,1.9277,1.9328,1.9345,1.9165,1.9165,1.9165,0,0,1.879,1.8806,1.8836,1.8888,1.8907,1.8956,1.8901,1.8955,1.8992,1.8955,1.9027,1.9038,1.9069,1.9154,1.9192,1.9167,1.9328,1.9277,1.9285,1.9289,1.9338,1.9355,1.937,1.917,1.9169,1.9168,0,0,1.8903,1.8919,1.8982,1.9002,1.9031,1.9031,1.9047,1.907,1.9076,1.9147,1.912,1.9165,1.9243,1.9266,1.9289,1.941,1.9388,1.9424,1.949,1.954,1.9555,1.9567,1.9611,1.9627,1.9434,1.9434,1.9434,0,1.8959,1.9031,1.9018,1.9074,1.9098,1.9065,1.913,1.915,1.9193,1.9211,1.9182,1.928,1.9298,1.9388,1.9418,1.9437,1.9455,1.9421,1.9553,1.9566,1.9577,1.962,1.9636,1.9438,1.9438,1.9437,1.9437,0,1.91,1.915,1.9198,1.9237,1.9267,1.9328,1.9325,1.9357,1.9345,1.9349,1.9423,1.9444,1.949,1.9511,1.95,1.96,1.9584,1.9554,1.9503,1.9599,1.9639,1.9654,1.9445,1.9443,1.9442,1.9441,0,0,1.9253,1.9284,1.9302,1.932,1.9349,1.9388,1.9447,1.9491,1.9519,1.9549,1.9599,1.9666,1.9639,1.9664,1.9656,1.97,1.9796,1.9665,1.9666,1.969,1.9909,1.9931,1.995,1.9781,1.9784,1.9787,1.9906,0,1.9368,1.9469,1.9459,1.9556,1.9603,1.9572,1.9624,1.9648,1.9653,1.9695,1.9701,1.9749,1.9709,1.9724,1.9766,1.9776,1.984,1.9767,1.983,1.9832,1.9824,1.9971,1.9995,2.0107,1.9922,1.9924,1.9926,0,1.9516,1.9549,1.9651,1.9672,1.9692,1.9738,1.9778,1.9817,1.9845,1.9846,1.9873,1.9858,1.9919,1.9866,1.995,1.9901,1.9926,1.9935,1.9939,1.9945,1.9886,1.9983,2.0142,2.016,1.995,1.9948,1.9946,0,1.9619,1.9689,1.9759,1.9775,1.9802,1.9836,1.9849,1.9873,1.99,1.9935,1.9953,1.9995,2.0019,2.0053,2.005,2.0011,2.0136,2.0082,2.014,2.0141,2.0169,2.0168,2.0336,2.0184,2.0183,2.0183,2.0183,0,1.9749,1.9812,1.9806,1.9849,1.9919,1.9907,1.9978,1.9988,2.0009,2.0055,2.003,2.0074,2.0066,2.0111,2.0109,2.018,2.0191,2.0194,2.0193,2.0197,2.0197,2.0215,2.0207,2.0187,2.0186,2.0186,2.0185,0,1.9876,1.9874,1.9948,1.9967,1.9974,2.0025,2.0042,2.0083,2.0086,2.0144,2.0157,2.0163,2.0213,2.0213,2.0271,2.027,2.0357,2.0347,2.0348,2.0346,2.0405,2.04,2.0592,2.0617,2.0446,2.0448,2.0449,0,1.996,2.0008,2.0032,2.006,2.0074,2.012,2.0147,2.0137,2.0167,2.0201,2.0239,2.0287,2.0325,2.0407,2.0418,2.0462,2.0453,2.0517,2.046,2.0463,2.0456,2.0454,2.0459,2.0529,2.0531,2.0533,2.0534,0,2.011,2.0106,2.0145,2.0184,2.0217,2.0248,2.0276,2.0301,2.0294,2.0329,2.0379,2.0408,2.0467,2.0516,2.0558,2.0573,2.0554,2.0552,2.0568,2.0573,2.0572,2.0574,2.038,2.0548,2.0546,2.0545,2.0545,2.0544,2.0219,2.026,2.0283,2.0328,2.0347,2.0374,2.0414,2.0421,2.0463,2.0508,2.05,2.0557,2.0584,2.0639,2.0658,2.0703,2.0681,2.0704,2.071,2.0716,2.0723,2.0563,2.0711,2.0711,2.071,2.071,2.071,0,2.0368,2.0381,2.0422,2.0461,2.0497,2.0472,2.0502,2.0534,2.0584,2.0609,2.0647,2.0705,2.0752,2.0765,2.0811,2.0845,2.0837,2.0857,2.0856,2.086,2.074,2.0722,2.0863,2.0863,2.0863,2.0863,2.0863,2.0863,2.045,2.0519,2.0518,2.0596,2.0609,2.0663,2.0682,2.0708,2.0728,2.0794,2.0832,2.0839,2.0861,2.0907,2.095,2.0953,2.0971,2.0996,2.0995,2.0883,2.0868,2.0853,2.0837,2.0999,2.1,2.1111,2.1112,2.1113]},{"header":{"parameterUnit":"m.s-1","parameterCategory":1,"la1":30.2991,"la2":30.254,"lo1":-89.0895,"lo2":-89.0444,"dy":0.0017,"dx":0.0017,"nx":28,"ny":28,"refTime":"2024-07-05T21:00:00:Z","depth":0,"parameterNumber":3,"parameterNumberName":"V-component_of_WINDS"},"data":[0,0,0,0,0,0,0,0,0,0,0,0,0,0,0,0,0,0,0,0,0,0,0,0,0,0,0,0,0,0,0,0,0,0,0,0,0,0,0,0,0,0,0,0,0,0,0,0,0,0,0,0,0,0,0,0,0,0,-0.5456,-0.5456,0,-0.5477,-0.5477,-0.5478,-0.551,-0.5511,-0.5511,-0.5512,-0.5532,-0.5532,-0.5533,0,0,0,0,0,0,0,0,0,0,0,0,0,-0.5443,-0.5443,-0.5456,-0.5456,-0.5457,-0.5477,-0.5477,-0.5478,-0.551,-0.5511,-0.5511,-0.5512,-0.5532,-0.5532,-0.5533,0,0,0,0,0,0,0,0,0,0,0,0,0,-0.5455,-0.5443,-0.5456,-0.5475,-0.5477,-0.5477,-0.5477,-0.5478,-0.551,-0.5511,-0.5511,-0.5512,-0.5532,-0.5532,-0.5533,-0.5515,0,0,-0.5533,-0.5533,0,0,0,0,0,0,0,0,-0.5454,-0.5455,-0.5472,-0.5474,-0.5476,-0.5492,-0.5481,-0.549,-0.5509,-0.5497,-0.5512,-0.5513,-0.5518,-0.5519,-0.5521,-0.5516,-0.5517,-0.5533,-0.5533,-0.5533,-0.5533,0,0,0,0,0,0,0,-0.5453,-0.5455,-0.5464,-0.5472,-0.5475,-0.5482,-0.5485,-0.5483,-0.5503,-0.5498,-0.5501,-0.5503,-0.5519,-0.5521,-0.5522,-0.5518,-0.5533,-0.5533,-0.5533,-0.5533,-0.55,-0.5499,0,0,0,0,0,0,-0.545,-0.5454,-0.5464,-0.5465,-0.5467,-0.5482,-0.5485,-0.5486,-0.5503,-0.5506,-0.5502,-0.5504,-0.5521,-0.5522,-0.5523,-0.5505,-0.5533,-0.5533,-0.5533,-0.5501,-0.55,-0.5499,0,0,0,0,0,0,-0.5449,-0.545,-0.5463,-0.546,-0.5462,-0.5481,-0.5482,-0.5486,-0.5488,-0.5506,-0.5509,-0.55,-0.5522,-0.5523,-0.5517,-0.5506,-0.5533,-0.5533,-0.5502,-0.5501,-0.5499,-0.5467,0,0,0,0,0,0,-0.5449,-0.545,-0.5444,-0.546,-0.5462,-0.5457,-0.5481,-0.5486,-0.5488,-0.5491,-0.5505,-0.5508,-0.5522,-0.5517,-0.5517,-0.5506,-0.5533,-0.5503,-0.5501,-0.55,-0.5469,-0.5465,-0.5461,0,0,0,0,0,-0.5448,-0.5433,-0.5443,-0.5444,-0.5455,-0.5456,-0.5457,-0.5474,-0.5487,-0.5481,-0.5492,-0.5508,-0.5507,-0.5516,-0.5517,-0.5505,-0.5504,-0.5502,-0.55,-0.5471,-0.5466,-0.5461,0,0,0,0,0,0,-0.5415,-0.5436,-0.5447,-0.5437,-0.5444,-0.5461,-0.5454,-0.5468,-0.5472,-0.5475,-0.5495,-0.5498,-0.549,-0.5497,-0.5507,-0.549,-0.5508,-0.5506,-0.5486,-0.5481,-0.5477,-0.5475,-0.5533,0,0,0,0,0,-0.5407,-0.5406,-0.5424,-0.5414,-0.5417,-0.5435,-0.5436,-0.5448,-0.5457,-0.546,-0.5471,-0.5479,-0.548,-0.5481,-0.5483,-0.547,-0.5474,-0.5463,-0.5459,-0.5455,-0.5454,-0.5448,-0.5443,-0.5492,-0.5492,-0.5492,0,0,-0.539,-0.5401,-0.5399,-0.5407,-0.5415,-0.5413,-0.5437,-0.5435,-0.5434,-0.546,-0.5455,-0.5463,-0.5473,-0.5464,-0.5461,-0.547,-0.5441,-0.5453,-0.545,-0.545,-0.5445,-0.5441,-0.5436,-0.5491,-0.5491,-0.5492,0,0,-0.5357,-0.5366,-0.5358,-0.5365,-0.5376,-0.5388,-0.5386,-0.5401,-0.5408,-0.5403,-0.5423,-0.5422,-0.5424,-0.5431,-0.5434,-0.5405,-0.5419,-0.5405,-0.5383,-0.5377,-0.5374,-0.537,-0.536,-0.5356,-0.5403,-0.5403,-0.5403,0,-0.5334,-0.5333,-0.5352,-0.5349,-0.5352,-0.5375,-0.5368,-0.5374,-0.5385,-0.5386,-0.5397,-0.54,-0.5408,-0.5401,-0.5394,-0.5396,-0.5395,-0.5403,-0.5373,-0.537,-0.5367,-0.5357,-0.5353,-0.5401,-0.5401,-0.5401,-0.5402,0,-0.5305,-0.5304,-0.5296,-0.5307,-0.5309,-0.5304,-0.5321,-0.5322,-0.5334,-0.5345,-0.534,-0.5351,-0.5356,-0.5356,-0.5367,-0.535,-0.5356,-0.5369,-0.5387,-0.536,-0.5351,-0.5348,-0.5398,-0.5399,-0.54,-0.54,0,0,-0.5252,-0.5273,-0.527,-0.5276,-0.529,-0.5289,-0.5285,-0.529,-0.529,-0.5297,-0.5294,-0.5295,-0.5308,-0.5312,-0.5325,-0.532,-0.5296,-0.5334,-0.5334,-0.5327,-0.5278,-0.5268,-0.5264,-0.5306,-0.5305,-0.5305,-0.5278,0,-0.5223,-0.5217,-0.5234,-0.5224,-0.5223,-0.5246,-0.5242,-0.525,-0.526,-0.5261,-0.5272,-0.5273,-0.529,-0.5292,-0.5288,-0.53,-0.5287,-0.5302,-0.5303,-0.5303,-0.53,-0.5259,-0.5249,-0.5223,-0.5274,-0.5274,-0.5273,0,-0.5188,-0.5194,-0.5183,-0.5199,-0.5199,-0.5195,-0.5202,-0.5203,-0.5212,-0.522,-0.5225,-0.524,-0.5237,-0.5254,-0.525,-0.526,-0.5262,-0.5267,-0.5267,-0.5268,-0.5287,-0.526,-0.5215,-0.5211,-0.5268,-0.5269,-0.5269,0,-0.5152,-0.5156,-0.5151,-0.5155,-0.5172,-0.5169,-0.5176,-0.5186,-0.5189,-0.5194,-0.5196,-0.5201,-0.5204,-0.5208,-0.5224,-0.5235,-0.5218,-0.5236,-0.5224,-0.5224,-0.522,-0.522,-0.5175,-0.522,-0.522,-0.522,-0.5221,0,-0.5118,-0.5111,-0.5135,-0.5132,-0.5124,-0.5144,-0.5136,-0.5145,-0.5155,-0.5154,-0.5173,-0.5172,-0.5193,-0.5194,-0.5206,-0.5201,-0.5202,-0.5208,-0.5212,-0.5207,-0.5206,-0.5208,-0.5211,-0.5219,-0.522,-0.522,-0.522,0,-0.5076,-0.5092,-0.5087,-0.5104,-0.5108,-0.5102,-0.5116,-0.5114,-0.5125,-0.5124,-0.5125,-0.5143,-0.5145,-0.5161,-0.5167,-0.5175,-0.5166,-0.5172,-0.5162,-0.5165,-0.5152,-0.5153,-0.5107,-0.5102,-0.515,-0.515,-0.5149,0,-0.5053,-0.5048,-0.5064,-0.5065,-0.5072,-0.5072,-0.5075,-0.5094,-0.5096,-0.5107,-0.5103,-0.5107,-0.5111,-0.5113,-0.5127,-0.5131,-0.5139,-0.5122,-0.5139,-0.5135,-0.5139,-0.5139,-0.5139,-0.5118,-0.5118,-0.5117,-0.5117,0,-0.5011,-0.502,-0.5023,-0.5029,-0.5031,-0.5037,-0.5043,-0.5043,-0.5064,-0.5065,-0.5067,-0.507,-0.5076,-0.508,-0.5087,-0.5094,-0.5109,-0.5111,-0.5109,-0.5104,-0.5099,-0.5102,-0.5153,-0.5112,-0.5113,-0.5113,-0.5113,-0.5114,-0.4979,-0.4976,-0.4987,-0.499,-0.4997,-0.5003,-0.5001,-0.5013,-0.5015,-0.5022,-0.5033,-0.5034,-0.5044,-0.5055,-0.5061,-0.5062,-0.5071,-0.5067,-0.5066,-0.5065,-0.5063,-0.5098,-0.5063,-0.5063,-0.5064,-0.5064,-0.5064,0,-0.4939,-0.4947,-0.495,-0.4958,-0.4961,-0.4975,-0.4983,-0.4984,-0.4984,-0.4993,-0.4996,-0.4999,-0.5003,-0.5017,-0.5022,-0.502,-0.5027,-0.5021,-0.5022,-0.5023,-0.5054,-0.5056,-0.5015,-0.5015,-0.5015,-0.5015,-0.5015,-0.5015,-0.4918,-0.4914,-0.4924,-0.4923,-0.4931,-0.4933,-0.4936,-0.4942,-0.4949,-0.4951,-0.4954,-0.4963,-0.4974,-0.498,-0.4984,-0.4988,-0.4989,-0.4981,-0.4987,-0.5016,-0.5021,-0.5025,-0.5027,-0.4981,-0.4981,-0.4956,-0.4956,-0.4955]}]]